HAZ2228 ZGHA-ZSHC

Flight info

Callsign HAZ2228
Flight time 1h 1m
Altitude 31100
Route PATVO H166 P645 H160 P473 H26 TXN G204 OREXA
Aircraft A321/M-SDE3FGHIRWY/LB1D1

Departure

Time 2026-04-23 13:50
Airport Changsha Huanghua International Airport (ZGHA)

Arrival

Time 2026-04-23 14:51
Airport Hangzhou Xiaoshan International Airport (ZSHC)
Time Latitude Longitude Altitude Speed Heading
2026-04-23 13:36 28.18785 113.21587 214 ft 0 kts 222°
2026-04-23 13:41 28.18796 113.21599 217 ft 4 kts 223°
2026-04-23 13:42 28.18814 113.21621 214 ft 4 kts 238°
2026-04-23 13:42 28.18821 113.21646 214 ft 3 kts 281°
2026-04-23 13:42 28.18814 113.21673 217 ft 4 kts 311°
2026-04-23 13:42 28.18793 113.21687 214 ft 4 kts 356°
2026-04-23 13:43 28.18769 113.21687 214 ft 1 kts 356°
2026-04-23 13:44 28.18772 113.21687 214 ft 3 kts 356°
2026-04-23 13:45 28.18829 113.21683 217 ft 12 kts 356°
2026-04-23 13:45 28.18884 113.21748 214 ft 11 kts 97°
2026-04-23 13:45 28.18834 113.21791 220 ft 18 kts 165°
2026-04-23 13:45 28.18683 113.21804 214 ft 25 kts 176°
2026-04-23 13:46 28.18510 113.21815 215 ft 24 kts 177°
2026-04-23 13:46 28.18343 113.21825 218 ft 23 kts 176°
2026-04-23 13:46 28.18185 113.21835 218 ft 22 kts 176°
2026-04-23 13:46 28.18035 113.21844 216 ft 21 kts 177°
2026-04-23 13:47 28.17890 113.21853 214 ft 20 kts 177°
2026-04-23 13:47 28.17763 113.21878 222 ft 16 kts 142°
2026-04-23 13:47 28.17742 113.21956 216 ft 8 kts 91°
2026-04-23 13:47 28.17776 113.22037 223 ft 16 kts 30°
2026-04-23 13:48 28.17833 113.22042 215 ft 0 kts 357°
2026-04-23 13:48 28.17837 113.22042 216 ft 4 kts 357°
2026-04-23 13:49 28.18031 113.22031 217 ft 63 kts 356°
2026-04-23 13:49 28.18695 113.21990 219 ft 124 kts 357°
2026-04-23 13:49 28.19722 113.21928 231 ft 168 kts 357°
2026-04-23 13:49 28.20917 113.21838 733 ft 172 kts 356°
2026-04-23 13:50 28.22087 113.21763 1360 ft 171 kts 357°
2026-04-23 13:50 28.23279 113.21692 1968 ft 172 kts 358°
2026-04-23 13:50 28.24517 113.21621 2218 ft 187 kts 358°
2026-04-23 13:50 28.25883 113.21542 2360 ft 205 kts 358°
2026-04-23 13:51 28.27360 113.21455 2659 ft 217 kts 358°
2026-04-23 13:51 28.28877 113.21366 3244 ft 219 kts 358°
2026-04-23 13:51 28.30381 113.21275 3841 ft 220 kts 358°
2026-04-23 13:51 28.31908 113.21179 4442 ft 220 kts 357°
2026-04-23 13:52 28.33444 113.21083 5031 ft 222 kts 356°
2026-04-23 13:52 28.34983 113.20986 5625 ft 222 kts 356°
2026-04-23 13:52 28.36529 113.21035 6187 ft 225 kts 13°
2026-04-23 13:52 28.37893 113.21902 6720 ft 231 kts 44°
2026-04-23 13:53 28.38668 113.23502 7242 ft 238 kts 76°
2026-04-23 13:53 28.38818 113.25383 7779 ft 241 kts 84°
2026-04-23 13:53 28.38904 113.27273 8414 ft 237 kts 85°
2026-04-23 13:53 28.38988 113.29166 8868 ft 244 kts 84°
2026-04-23 13:54 28.39075 113.31102 9346 ft 248 kts 85°
2026-04-23 13:54 28.39164 113.33067 9837 ft 251 kts 84°
2026-04-23 13:54 28.39256 113.35058 10295 ft 255 kts 84°
2026-04-23 13:54 28.39349 113.37082 10760 ft 259 kts 84°
2026-04-23 13:55 28.39446 113.39138 11221 ft 262 kts 84°
2026-04-23 13:55 28.39546 113.41222 11668 ft 266 kts 84°
2026-04-23 13:55 28.39634 113.43333 12121 ft 271 kts 87°
2026-04-23 13:55 28.39192 113.45431 12533 ft 280 kts 119°
2026-04-23 13:56 28.37865 113.47038 12880 ft 285 kts 151°
2026-04-23 13:56 28.35975 113.47700 13023 ft 290 kts 180°
2026-04-23 13:56 28.33889 113.47809 13135 ft 311 kts 182°
2026-04-23 13:56 28.31658 113.47911 13272 ft 331 kts 182°
2026-04-23 13:57 28.29288 113.48024 13404 ft 351 kts 181°
2026-04-23 13:57 28.26780 113.48155 13531 ft 370 kts 181°
2026-04-23 13:57 28.24145 113.48304 13654 ft 388 kts 180°
2026-04-23 13:57 28.21387 113.48467 13784 ft 405 kts 180°
2026-04-23 13:58 28.18544 113.48641 14140 ft 412 kts 180°
2026-04-23 13:58 28.15700 113.49243 14596 ft 422 kts 163°
2026-04-23 13:58 28.13106 113.50861 15072 ft 432 kts 143°
2026-04-23 13:58 28.11078 113.53396 15522 ft 441 kts 123°
2026-04-23 13:59 28.09696 113.56512 15990 ft 445 kts 116°
2026-04-23 13:59 28.08399 113.59716 16439 ft 449 kts 116°
2026-04-23 13:59 28.07099 113.62943 16890 ft 453 kts 116°
2026-04-23 13:59 28.05832 113.66218 17317 ft 458 kts 111°
2026-04-23 14:00 28.05214 113.68502 17599 ft 461 kts 104°
2026-04-23 14:00 28.04700 113.73352 18146 ft 467 kts 90°
2026-04-23 14:00 28.04973 113.77025 18532 ft 471 kts 81°
2026-04-23 14:00 28.05443 113.80719 18923 ft 475 kts 82°
2026-04-23 14:01 28.05905 113.84437 19275 ft 480 kts 82°
2026-04-23 14:01 28.06363 113.88189 19639 ft 483 kts 82°
2026-04-23 14:01 28.06815 113.91925 20013 ft 487 kts 82°
2026-04-23 14:01 28.07274 113.95741 20359 ft 491 kts 82°
2026-04-23 14:02 28.07736 113.99584 20731 ft 495 kts 82°
2026-04-23 14:02 28.08204 114.03462 21066 ft 499 kts 82°
2026-04-23 14:02 28.08675 114.07368 21395 ft 502 kts 83°
2026-04-23 14:02 28.09151 114.11300 21713 ft 506 kts 83°
2026-04-23 14:03 28.09631 114.15265 21999 ft 510 kts 83°
2026-04-23 14:03 28.10115 114.19256 22329 ft 513 kts 83°
2026-04-23 14:03 28.10598 114.23268 22656 ft 515 kts 82°
2026-04-23 14:03 28.11078 114.27296 22978 ft 518 kts 83°
2026-04-23 14:04 28.11561 114.31354 23264 ft 522 kts 83°
2026-04-23 14:04 28.12053 114.35440 23564 ft 525 kts 82°
2026-04-23 14:04 28.12590 114.39545 23853 ft 528 kts 81°
2026-04-23 14:04 28.13179 114.43691 24144 ft 531 kts 81°
2026-04-23 14:05 28.13797 114.47823 24400 ft 534 kts 81°
2026-04-23 14:05 28.14430 114.51993 24648 ft 538 kts 81°
2026-04-23 14:05 28.15056 114.56175 24896 ft 541 kts 81°
2026-04-23 14:05 28.15664 114.60335 25154 ft 543 kts 81°
2026-04-23 14:06 28.16278 114.64623 25401 ft 547 kts 82°
2026-04-23 14:06 28.16871 114.68837 25604 ft 551 kts 82°
2026-04-23 14:06 28.17470 114.73129 25837 ft 554 kts 82°
2026-04-23 14:06 28.18073 114.77455 26088 ft 556 kts 82°
2026-04-23 14:07 28.18676 114.81788 26309 ft 559 kts 82°
2026-04-23 14:07 28.19904 114.90520 26866 ft 562 kts 82°
2026-04-23 14:07 28.20522 114.94898 27167 ft 562 kts 82°
2026-04-23 14:08 28.21138 114.99283 27442 ft 563 kts 82°
2026-04-23 14:08 28.21751 115.03674 27749 ft 564 kts 82°
2026-04-23 14:08 28.22360 115.08069 28032 ft 565 kts 82°
2026-04-23 14:08 28.22969 115.12479 28295 ft 567 kts 82°
2026-04-23 14:09 28.23583 115.16905 28579 ft 568 kts 82°
2026-04-23 14:09 28.24192 115.21323 28835 ft 568 kts 83°
2026-04-23 14:09 28.24798 115.25755 29095 ft 569 kts 83°
2026-04-23 14:09 28.25402 115.30197 29347 ft 570 kts 83°
2026-04-23 14:10 28.26007 115.34642 29592 ft 571 kts 83°
2026-04-23 14:10 28.26619 115.39104 29868 ft 572 kts 83°
2026-04-23 14:10 28.27227 115.43560 30138 ft 572 kts 83°
2026-04-23 14:10 28.27829 115.48022 30383 ft 573 kts 83°
2026-04-23 14:11 28.28428 115.52501 30650 ft 574 kts 83°
2026-04-23 14:11 28.29027 115.56976 30922 ft 574 kts 83°
2026-04-23 14:11 28.29629 115.61457 31109 ft 574 kts 83°
2026-04-23 14:11 28.30233 115.65922 31151 ft 573 kts 83°
2026-04-23 14:12 28.31437 115.74837 31146 ft 571 kts 83°
2026-04-23 14:12 28.32626 115.83751 31140 ft 572 kts 83°
2026-04-23 14:13 28.34218 115.92603 31149 ft 573 kts 76°
2026-04-23 14:13 28.36424 116.01283 31142 ft 573 kts 68°
2026-04-23 14:14 28.39483 116.09635 31144 ft 572 kts 66°
2026-04-23 14:14 28.42529 116.17975 31148 ft 572 kts 66°
2026-04-23 14:15 28.45566 116.26340 31149 ft 572 kts 66°
2026-04-23 14:15 28.48595 116.34692 31146 ft 571 kts 66°
2026-04-23 14:16 28.51620 116.43043 31150 ft 571 kts 66°
2026-04-23 14:16 28.54636 116.51383 31150 ft 570 kts 66°
2026-04-23 14:17 28.57649 116.59721 31146 ft 570 kts 66°
2026-04-23 14:17 28.60649 116.68059 31149 ft 569 kts 67°
2026-04-23 14:18 28.63636 116.76394 31150 ft 569 kts 67°
2026-04-23 14:18 28.66606 116.84672 31151 ft 568 kts 67°
2026-04-23 14:19 28.69587 116.92997 31150 ft 568 kts 67°
2026-04-23 14:19 28.72557 117.01330 31150 ft 567 kts 67°
2026-04-23 14:20 28.75515 117.09668 31144 ft 567 kts 67°
2026-04-23 14:20 28.78454 117.17957 31141 ft 568 kts 67°
2026-04-23 14:21 28.82064 117.25894 31148 ft 562 kts 50°
2026-04-23 14:21 28.87384 117.32232 31167 ft 547 kts 31°
2026-04-23 14:22 28.93824 117.36491 31160 ft 525 kts 12°
2026-04-23 14:22 29.00663 117.39247 31164 ft 521 kts
2026-04-23 14:23 29.07504 117.41967 31167 ft 520 kts
2026-04-23 14:23 29.14362 117.44502 31166 ft 518 kts
2026-04-23 14:24 29.21280 117.46908 31161 ft 518 kts
2026-04-23 14:24 29.28131 117.49556 31164 ft 530 kts 17°
2026-04-23 14:25 29.31359 117.51696 31160 ft 542 kts 29°
2026-04-23 14:25 29.34258 117.54511 31159 ft 552 kts 41°
2026-04-23 14:25 29.36715 117.57929 31153 ft 559 kts 53°
2026-04-23 14:25 29.38631 117.61815 31160 ft 562 kts 65°
2026-04-23 14:26 29.41783 117.70032 31164 ft 563 kts 65°
2026-04-23 14:26 29.44405 117.76872 31165 ft 564 kts 65°
2026-04-23 14:27 29.48090 117.86511 31164 ft 564 kts 66°
2026-04-23 14:27 29.51222 117.94763 31166 ft 564 kts 66°
2026-04-23 14:28 29.54857 118.02717 31166 ft 561 kts 52°
2026-04-23 14:28 29.59953 118.09382 31149 ft 554 kts 39°
2026-04-23 14:29 29.65392 118.15593 31163 ft 556 kts 40°
2026-04-23 14:29 29.67921 118.18985 31164 ft 562 kts 51°
2026-04-23 14:29 29.69355 118.21534 31164 ft 564 kts 59°
2026-04-23 14:30 29.71474 118.26996 31164 ft 565 kts 73°
2026-04-23 14:30 29.72404 118.31369 31160 ft 563 kts 84°
2026-04-23 14:30 29.72513 118.40233 30833 ft 554 kts 101°
2026-04-23 14:31 29.72108 118.44644 30584 ft 554 kts 101°
2026-04-23 14:31 29.71701 118.49043 30336 ft 552 kts 101°
2026-04-23 14:31 29.71297 118.53429 30084 ft 551 kts 101°
2026-04-23 14:31 29.70893 118.57806 29832 ft 550 kts 101°
2026-04-23 14:32 29.70492 118.62187 29589 ft 551 kts 101°
2026-04-23 14:32 29.70091 118.66565 29342 ft 551 kts 101°
2026-04-23 14:32 29.69689 118.70939 29079 ft 550 kts 101°
2026-04-23 14:32 29.69287 118.75321 28824 ft 551 kts 101°
2026-04-23 14:33 29.68887 118.79703 28581 ft 551 kts 101°
2026-04-23 14:33 29.68491 118.84084 28324 ft 551 kts 101°
2026-04-23 14:33 29.68231 118.86982 28151 ft 551 kts 101°
2026-04-23 14:33 29.67701 118.92833 27442 ft 550 kts 101°
2026-04-23 14:34 29.67433 118.95754 26508 ft 558 kts 101°
2026-04-23 14:34 29.67014 119.00217 25290 ft 564 kts 101°
2026-04-23 14:34 29.66588 119.04720 24122 ft 566 kts 100°
2026-04-23 14:34 29.66389 119.09238 23248 ft 567 kts 90°
2026-04-23 14:35 29.66835 119.13708 22712 ft 560 kts 80°
2026-04-23 14:35 29.67870 119.17981 22050 ft 553 kts 69°
2026-04-23 14:35 29.69475 119.21962 21365 ft 544 kts 59°
2026-04-23 14:35 29.71555 119.25550 20664 ft 535 kts 52°
2026-04-23 14:36 29.73715 119.29001 20008 ft 527 kts 52°
2026-04-23 14:36 29.75829 119.32395 19303 ft 513 kts 52°
2026-04-23 14:36 29.77865 119.35683 17795 ft 500 kts 52°
2026-04-23 14:36 29.79848 119.38902 16445 ft 483 kts 52°
2026-04-23 14:37 29.81757 119.42005 15347 ft 468 kts 52°
2026-04-23 14:37 29.83618 119.45035 15010 ft 460 kts 53°
2026-04-23 14:37 29.85459 119.48020 14701 ft 452 kts 53°
2026-04-23 14:37 29.87267 119.50942 14088 ft 445 kts 52°
2026-04-23 14:38 29.89051 119.53824 13508 ft 438 kts 53°
2026-04-23 14:38 29.90804 119.56662 12928 ft 431 kts 53°
2026-04-23 14:38 29.92532 119.59460 12352 ft 425 kts 53°
2026-04-23 14:38 29.94234 119.62221 11784 ft 419 kts 53°
2026-04-23 14:39 29.95898 119.64927 11422 ft 407 kts 53°
2026-04-23 14:39 29.97499 119.67535 11289 ft 390 kts 53°
2026-04-23 14:39 29.99035 119.70037 11161 ft 374 kts 53°
2026-04-23 14:39 30.00506 119.72440 11037 ft 360 kts 53°
2026-04-23 14:40 30.01924 119.74754 10910 ft 346 kts 53°
2026-04-23 14:40 30.03283 119.76983 10786 ft 333 kts 55°
2026-04-23 14:40 30.04392 119.79278 10657 ft 322 kts 61°
2026-04-23 14:40 30.05407 119.81535 10533 ft 311 kts 61°
2026-04-23 14:41 30.06390 119.83720 10293 ft 303 kts 61°
2026-04-23 14:41 30.07353 119.85856 10086 ft 298 kts 61°
2026-04-23 14:41 30.08306 119.87969 9848 ft 297 kts 61°
2026-04-23 14:41 30.09265 119.90098 9422 ft 296 kts 61°
2026-04-23 14:42 30.10207 119.92187 9119 ft 291 kts 61°
2026-04-23 14:42 30.11136 119.94245 8786 ft 287 kts 61°
2026-04-23 14:42 30.12044 119.96262 8488 ft 273 kts 61°
2026-04-23 14:42 30.12880 119.98127 8285 ft 252 kts 61°
2026-04-23 14:43 30.13672 119.99904 7654 ft 246 kts 61°
2026-04-23 14:43 30.14440 120.01629 7231 ft 234 kts 61°
2026-04-23 14:43 30.15094 120.03258 7075 ft 218 kts 73°
2026-04-23 14:43 30.15093 120.04992 6967 ft 220 kts 103°
2026-04-23 14:44 30.14275 120.06485 6669 ft 225 kts 136°
2026-04-23 14:44 30.12914 120.07391 6339 ft 226 kts 150°
2026-04-23 14:44 30.11611 120.08327 6002 ft 221 kts 132°
2026-04-23 14:44 30.10852 120.09789 5717 ft 212 kts 102°
2026-04-23 14:45 30.10821 120.11450 5501 ft 207 kts 74°
2026-04-23 14:45 30.11392 120.12958 5255 ft 206 kts 61°
2026-04-23 14:45 30.12053 120.14421 4984 ft 206 kts 61°
2026-04-23 14:45 30.12714 120.15892 4712 ft 205 kts 61°
2026-04-23 14:46 30.13363 120.17342 4440 ft 199 kts 61°
2026-04-23 14:46 30.13982 120.18734 4178 ft 190 kts 61°
2026-04-23 14:46 30.14580 120.20070 3932 ft 186 kts 61°
2026-04-23 14:46 30.15162 120.21384 3688 ft 184 kts 61°
2026-04-23 14:47 30.15753 120.22698 3447 ft 185 kts 60°
2026-04-23 14:47 30.16341 120.24016 3202 ft 185 kts 61°
2026-04-23 14:47 30.16929 120.25337 2952 ft 183 kts 61°
2026-04-23 14:47 30.17498 120.26620 2728 ft 181 kts 60°
2026-04-23 14:48 30.18082 120.27928 2484 ft 185 kts 60°
2026-04-23 14:48 30.18673 120.29254 2228 ft 186 kts 60°
2026-04-23 14:48 30.19265 120.30581 1981 ft 186 kts 61°
2026-04-23 14:48 30.19837 120.31866 1729 ft 173 kts 62°
2026-04-23 14:49 30.20375 120.33077 1515 ft 167 kts 61°
2026-04-23 14:49 30.20905 120.34269 1296 ft 165 kts 62°
2026-04-23 14:49 30.21430 120.35449 1080 ft 165 kts 62°
2026-04-23 14:49 30.21931 120.36579 860 ft 153 kts 62°
2026-04-23 14:50 30.22412 120.37649 662 ft 148 kts 62°
2026-04-23 14:50 30.22879 120.38698 460 ft 145 kts 61°
2026-04-23 14:50 30.23341 120.39733 269 ft 145 kts 63°
2026-04-23 14:50 30.23796 120.40767 96 ft 144 kts 63°
2026-04-23 14:51 30.24231 120.41753 32 ft 120 kts 63°
2026-04-23 14:51 30.24506 120.42378 29 ft 42 kts 63°
2026-04-23 14:51 30.24556 120.42600 29 ft 27 kts 86°
2026-04-23 14:51 30.24550 120.42760 31 ft 12 kts 124°
2026-04-23 14:52 30.24495 120.42768 32 ft 7 kts 216°
2026-04-23 14:52 30.24439 120.42753 32 ft 12 kts 167°
2026-04-23 14:52 30.24342 120.42801 32 ft 15 kts 167°
2026-04-23 14:52 30.24248 120.42809 32 ft 13 kts 155°
2026-04-23 14:53 30.24169 120.42856 32 ft 12 kts 153°
2026-04-23 14:53 30.24103 120.42894 31 ft 6 kts 156°
2026-04-23 14:53 30.24075 120.42881 31 ft 3 kts 226°
2026-04-23 14:53 30.24065 120.42861 32 ft 2 kts 242°
2026-04-23 14:54 30.24059 120.42848 32 ft 0 kts 242°